Flag for Germany Weather past 2 weeks in Warendorf, North Rhine-Westphalia, Germany

Now
41 °F

Light rain. Passing clouds.


Feels Like: 34 °F
Forecast: 36 / 45 °F
Wind: 13 mph from South

Location: Muenster / Osnabrueck

Current Time: Mar 1, 2015 at 4:05:17 AM

Latest Report: Mar 1, 2015 at 3:20 AM


Visibility: N/A

Pressure: 29.59 "Hg

Humidity: 76%

Dew point: 34 °F

Location of WarendorfLocation

Historic Weather in Warendorf — Graph

°F

Warendorf temperature yesterday

Maximum temperature yesterday: 46 °F (at 2:20 PM)
Minimum temperature yesterday: 28 °F (at 3:50 AM)
Average temperature yesterday: 38 °F

Past Weeks' High & Low Weather Summary

 TemperatureHumidityPressure
High52 °F (Feb 14, 2:50 PM)100% (Feb 15, 1:50 AM)30.74 "Hg (Feb 15, 1:50 AM)
Low27 °F (Feb 17, 1:50 AM)46% (Feb 28, 2:20 PM)29.30 "Hg (Feb 21, 6:20 AM)
Average38 °F86%29.95 "Hg
* Reported Feb 14 2:20 AM — Mar 1 2:50 AM, Warendorf, Weather by CustomWeather, © 2015

Note: Actual official high and low records may vary slightly from our data, if they occured in-between our weather recording intervals... More about our weather records

Advertising

Warendorf weather history for previous 24 hours

 ConditionsComfort  
Time TempWeatherWind HumidityBarometerVisibility
2:50 AM
Sun, Mar 1
43 °FLight rain. Passing clouds.13 mph61%29.62 "HgN/A
2:20 AM43 °FPartly cloudy.15 mph57%29.62 "HgN/A
1:50 AM43 °FPassing clouds.13 mph57%29.65 "HgN/A
1:20 AM43 °FPassing clouds.13 mph57%29.68 "HgN/A
12:50 AM43 °FPassing clouds.10 mph57%29.71 "HgN/A
12:20 AM43 °FPassing clouds.10 mph57%29.74 "HgN/A
11:50 PM
Sat, Feb 28
43 °FPassing clouds.10 mph57%29.74 "HgN/A
11:20 PM43 °FPassing clouds.12 mph57%29.77 "HgN/A
10:50 PM43 °FPassing clouds.10 mph57%29.77 "HgN/A
10:20 PM43 °FPassing clouds.12 mph57%29.80 "HgN/A
9:50 PM41 °FPassing clouds.9 mph61%29.83 "HgN/A
9:20 PM41 °FPartly cloudy.12 mph61%29.83 "HgN/A
8:50 PM41 °FClear.10 mph61%29.86 "Hg10 mi
8:20 PM41 °FClear.10 mph61%29.89 "Hg10 mi
7:50 PM41 °FClear.10 mph66%29.89 "Hg10 mi
7:20 PM43 °FClear.9 mph61%29.89 "Hg10 mi
6:50 PM43 °FClear.9 mph57%29.89 "Hg10 mi
6:20 PM43 °FClear.9 mph57%29.89 "Hg10 mi
5:50 PM45 °FSunny.9 mph53%29.92 "Hg10 mi
5:20 PM45 °FSunny.9 mph53%29.92 "Hg10 mi
4:50 PM46 °FSunny.13 mph46%29.95 "Hg10 mi
4:20 PM46 °FPassing clouds.13 mph46%29.95 "HgN/A
3:50 PM46 °FPassing clouds.10 mph50%29.98 "HgN/A
3:20 PM46 °FScattered clouds.10 mph46%29.98 "HgN/A
2:50 PM46 °FPassing clouds.10 mph50%30.01 "HgN/A
2:20 PM46 °FPassing clouds.13 mph46%30.01 "HgN/A
1:50 PM45 °FPassing clouds.14 mph49%30.04 "HgN/A
1:20 PM45 °FPassing clouds.14 mph53%30.04 "HgN/A
12:50 PM43 °FScattered clouds.13 mph61%30.04 "HgN/A
12:20 PM43 °FPartly sunny.14 mph61%30.07 "HgN/A
11:50 AM43 °FPartly sunny.13 mph66%30.07 "HgN/A
11:20 AM41 °FPartly sunny.9 mph70%30.07 "HgN/A
10:50 AM39 °FPartly sunny.9 mph75%30.09 "HgN/A
10:20 AM37 °FSunny.10 mph87%30.09 "Hg10 mi
9:50 AM37 °FClear.8 mph87%30.09 "Hg6 mi
9:20 AM34 °FPartly sunny.7 mph93%30.12 "Hg5 mi
8:50 AM34 °FPartly sunny.7 mph93%30.12 "Hg4 mi
8:20 AM32 °FIce fog.5 mph100%30.12 "Hg3 mi
7:50 AM30 °FIce fog.6 mph100%30.12 "Hg3 mi
7:20 AM30 °FIce fog.5 mph100%30.12 "Hg3 mi
6:50 AM30 °FIce fog.5 mph100%30.09 "Hg3 mi
6:20 AM30 °FIce fog.5 mph100%30.09 "Hg3 mi
5:50 AM28 °FFog.3 mph100%30.09 "Hg4 mi
5:20 AM28 °FFog.5 mph100%30.12 "Hg6 mi
4:20 AM28 °FFog.1 mph100%30.12 "HgN/A
Weather by CustomWeather, © 2015

See weather overviewHow to use our weather pages